Location: Sweet Grass
(48.9965°N, 111.9649°W)
Time: 07:16:57
(UTC+00:00)

N. Korean satellite - Pass Details

Date: 30 November 2022
Orbit: 407 x 442 km, 97.3° (Epoch: 04 February)

Event Time Altitude Azimuth Distance (km) Brightness Sun altitude
Rises 13:51:38 0° 360° (N) 2,530 10.0 -10.7°
Reaches altitude 10° 13:54:03 10° 344° (NNW) 1,646 8.9 -10.4°
Maximum altitude 13:56:43 20° 295° (WNW) 1,132 7.8 -9.9°
Drops below altitude 10° 13:59:22 10° 245° (WSW) 1,626 8.8 -9.5°
Sets 14:01:44 0° 229° (SW) 2,489 9.9 -9.2°
